EZY642P EGKK-EGPH

Flight info

Callsign EZY642P
Flight time 0h 53m
Altitude 38000
Route LAM L10 BPK UN601 RIBEL DCT INPIP
Aircraft A320/M-SDE3FGHIRWY/LB1

Departure

Time 2026-04-24 18:55
Airport London Gatwick Airport (EGKK)

Arrival

Time 2026-04-24 19:48
Airport Edinburgh Airport (EGPH)
Time Latitude Longitude Altitude Speed Heading
2026-04-24 18:54 51.26296 0.21707 7214 ft 274 kts 79°
2026-04-24 18:55 51.27012 0.27800 9045 ft 284 kts 79°
2026-04-24 18:55 51.27630 0.30819 9920 ft 291 kts 59°
2026-04-24 18:55 51.28997 0.33229 10593 ft 303 kts 35°
2026-04-24 18:56 51.30980 0.34642 10927 ft 326 kts 11°
2026-04-24 18:56 51.33292 0.34985 11428 ft 340 kts
2026-04-24 18:56 51.35669 0.35138 12194 ft 345 kts
2026-04-24 18:56 51.38096 0.35276 12986 ft 351 kts
2026-04-24 18:57 51.40543 0.34975 13705 ft 357 kts 344°
2026-04-24 18:57 51.42808 0.33360 14413 ft 360 kts 328°
2026-04-24 18:57 51.44948 0.31252 15167 ft 361 kts 326°
2026-04-24 18:57 51.47110 0.29082 15941 ft 364 kts 326°
2026-04-24 18:58 51.49274 0.26936 16688 ft 366 kts 326°
2026-04-24 18:58 51.51448 0.24789 17436 ft 369 kts 326°
2026-04-24 18:58 51.53653 0.22624 18164 ft 372 kts 326°
2026-04-24 18:58 51.55876 0.20459 18840 ft 375 kts 326°
2026-04-24 18:59 51.58120 0.18290 19163 ft 377 kts 326°
2026-04-24 18:59 51.60341 0.16138 19256 ft 376 kts 326°
2026-04-24 18:59 51.62604 0.13943 19272 ft 376 kts 326°
2026-04-24 18:59 51.64844 0.11770 19271 ft 376 kts 326°
2026-04-24 19:00 51.67084 0.09594 19270 ft 376 kts 326°
2026-04-24 19:00 51.69327 0.07417 19271 ft 376 kts 326°
2026-04-24 19:00 51.71566 0.05241 19270 ft 376 kts 326°
2026-04-24 19:00 51.73806 0.03064 19271 ft 376 kts 326°
2026-04-24 19:01 51.76031 0.00849 19271 ft 376 kts 325°
2026-04-24 19:01 51.78231 -0.01427 19289 ft 375 kts 324°
2026-04-24 19:01 51.80409 -0.03729 19284 ft 374 kts 324°
2026-04-24 19:01 51.82585 -0.06047 19287 ft 375 kts 325°
2026-04-24 19:02 51.84032 -0.07587 19284 ft 375 kts 325°
2026-04-24 19:02 51.86950 -0.10685 19269 ft 376 kts 325°
2026-04-24 19:02 51.89136 -0.13001 19269 ft 376 kts 325°
2026-04-24 19:02 51.91318 -0.15320 19270 ft 376 kts 325°
2026-04-24 19:03 51.93508 -0.17646 19271 ft 376 kts 325°
2026-04-24 19:03 51.95694 -0.19959 19271 ft 376 kts 325°
2026-04-24 19:03 51.97888 -0.22274 19270 ft 376 kts 325°
2026-04-24 19:03 52.00077 -0.24591 19270 ft 376 kts 325°
2026-04-24 19:04 52.02264 -0.26912 19270 ft 375 kts 325°
2026-04-24 19:04 52.04446 -0.29230 19266 ft 375 kts 325°
2026-04-24 19:04 52.06645 -0.31571 19620 ft 380 kts 325°
2026-04-24 19:04 52.08857 -0.33935 20312 ft 380 kts 324°
2026-04-24 19:05 52.11065 -0.36298 20994 ft 381 kts 324°
2026-04-24 19:05 52.13282 -0.38672 21669 ft 381 kts 323°
2026-04-24 19:05 52.15547 -0.41103 22349 ft 382 kts 323°
2026-04-24 19:05 52.17724 -0.43437 22996 ft 383 kts 322°
2026-04-24 19:06 52.19950 -0.45824 23645 ft 384 kts 322°
2026-04-24 19:06 52.22179 -0.48220 24188 ft 385 kts 322°
2026-04-24 19:06 52.24424 -0.50638 24678 ft 387 kts 322°
2026-04-24 19:06 52.26675 -0.53062 25135 ft 389 kts 322°
2026-04-24 19:07 52.28938 -0.55499 25608 ft 391 kts 323°
2026-04-24 19:07 52.31226 -0.57970 25947 ft 397 kts 323°
2026-04-24 19:07 52.32757 -0.59628 26209 ft 399 kts 323°
2026-04-24 19:07 52.35624 -0.62732 26748 ft 402 kts 323°
2026-04-24 19:08 52.37994 -0.65298 27214 ft 403 kts 323°
2026-04-24 19:08 52.40337 -0.67838 27663 ft 405 kts 323°
2026-04-24 19:08 52.42723 -0.70425 28130 ft 407 kts 323°
2026-04-24 19:08 52.45072 -0.72976 28576 ft 408 kts 323°
2026-04-24 19:09 52.47455 -0.75568 29020 ft 410 kts 323°
2026-04-24 19:09 52.49836 -0.78159 29444 ft 411 kts 323°
2026-04-24 19:09 52.52227 -0.80767 29892 ft 413 kts 322°
2026-04-24 19:09 52.54618 -0.83384 30334 ft 413 kts 322°
2026-04-24 19:10 52.57005 -0.85999 30687 ft 414 kts 322°
2026-04-24 19:10 52.59417 -0.88641 30992 ft 417 kts 322°
2026-04-24 19:10 52.61832 -0.91292 31279 ft 419 kts 322°
2026-04-24 19:10 52.64262 -0.93969 31541 ft 421 kts 322°
2026-04-24 19:11 52.66704 -0.96668 31842 ft 423 kts 322°
2026-04-24 19:11 52.69148 -0.99369 32222 ft 423 kts 323°
2026-04-24 19:11 52.71592 -1.02068 32554 ft 424 kts 323°
2026-04-24 19:11 52.74035 -1.04765 32887 ft 425 kts 323°
2026-04-24 19:12 52.76504 -1.07490 33282 ft 425 kts 324°
2026-04-24 19:12 52.78958 -1.10202 33744 ft 423 kts 324°
2026-04-24 19:12 52.81387 -1.12893 34191 ft 421 kts 324°
2026-04-24 19:12 52.83824 -1.15603 34550 ft 421 kts 324°
2026-04-24 19:13 52.85428 -1.17393 34778 ft 421 kts 324°
2026-04-24 19:13 52.88669 -1.21018 35204 ft 420 kts 324°
2026-04-24 19:13 52.91096 -1.23731 35515 ft 420 kts 324°
2026-04-24 19:13 52.93523 -1.26446 35810 ft 421 kts 324°
2026-04-24 19:14 52.95949 -1.29154 36100 ft 421 kts 324°
2026-04-24 19:14 52.98395 -1.31814 36385 ft 421 kts 326°
2026-04-24 19:14 53.00884 -1.34383 36689 ft 421 kts 327°
2026-04-24 19:14 53.03396 -1.36892 36983 ft 421 kts 327°
2026-04-24 19:15 53.05914 -1.39380 37255 ft 421 kts 327°
2026-04-24 19:15 53.08482 -1.41933 37501 ft 422 kts 327°
2026-04-24 19:15 53.10939 -1.44407 37736 ft 422 kts 327°
2026-04-24 19:15 53.13404 -1.46916 37975 ft 422 kts 327°
2026-04-24 19:16 53.18426 -1.52066 38275 ft 424 kts 327°
2026-04-24 19:16 53.23446 -1.57235 38276 ft 424 kts 326°
2026-04-24 19:17 53.28470 -1.62422 38277 ft 424 kts 327°
2026-04-24 19:17 53.33494 -1.67596 38277 ft 424 kts 327°
2026-04-24 19:18 53.38520 -1.72794 38277 ft 424 kts 327°
2026-04-24 19:18 53.43544 -1.78006 38281 ft 425 kts 327°
2026-04-24 19:19 53.48567 -1.83233 38283 ft 425 kts 327°
2026-04-24 19:19 53.53589 -1.88462 38283 ft 425 kts 327°
2026-04-24 19:20 53.57809 -1.92870 38286 ft 425 kts 327°
2026-04-24 19:20 53.62831 -1.98136 38288 ft 425 kts 327°
2026-04-24 19:21 53.67845 -2.03424 38286 ft 425 kts 327°
2026-04-24 19:21 53.72862 -2.08727 38288 ft 425 kts 327°
2026-04-24 19:22 53.78231 -2.12943 38283 ft 427 kts 336°
2026-04-24 19:22 53.83760 -2.16690 38283 ft 427 kts 336°
2026-04-24 19:23 53.89271 -2.20473 38279 ft 428 kts 336°
2026-04-24 19:23 53.94788 -2.24260 38281 ft 428 kts 336°
2026-04-24 19:24 54.00307 -2.28057 38295 ft 428 kts 336°
2026-04-24 19:24 54.05813 -2.31857 38293 ft 427 kts 336°
2026-04-24 19:25 54.11318 -2.35668 38288 ft 427 kts 336°
2026-04-24 19:25 54.14070 -2.37580 37989 ft 427 kts 336°
2026-04-24 19:25 54.16815 -2.39489 37511 ft 426 kts 336°
2026-04-24 19:26 54.19554 -2.41391 37055 ft 425 kts 336°
2026-04-24 19:26 54.22291 -2.43291 36622 ft 425 kts 336°
2026-04-24 19:26 54.25026 -2.45194 36184 ft 425 kts 336°
2026-04-24 19:26 54.27769 -2.47105 35756 ft 425 kts 336°
2026-04-24 19:27 54.30502 -2.49014 35319 ft 425 kts 336°
2026-04-24 19:27 54.33235 -2.50927 34916 ft 425 kts 336°
2026-04-24 19:27 54.35979 -2.52850 34507 ft 426 kts 336°
2026-04-24 19:27 54.38722 -2.54778 34129 ft 426 kts 336°
2026-04-24 19:28 54.41463 -2.56710 33853 ft 427 kts 336°
2026-04-24 19:28 54.44217 -2.58654 33580 ft 428 kts 336°
2026-04-24 19:28 54.46972 -2.60603 33317 ft 428 kts 336°
2026-04-24 19:28 54.49720 -2.62547 33052 ft 428 kts 337°
2026-04-24 19:29 54.55221 -2.66424 32530 ft 426 kts 337°
2026-04-24 19:29 54.57965 -2.68362 32271 ft 425 kts 337°
2026-04-24 19:29 54.60696 -2.70302 31993 ft 425 kts 336°
2026-04-24 19:30 54.63416 -2.72238 31449 ft 421 kts 336°
2026-04-24 19:30 54.66114 -2.74157 30863 ft 418 kts 336°
2026-04-24 19:30 54.68798 -2.76071 30278 ft 415 kts 336°
2026-04-24 19:30 54.71460 -2.77973 29656 ft 411 kts 336°
2026-04-24 19:31 54.74087 -2.79858 29099 ft 407 kts 337°
2026-04-24 19:31 54.76682 -2.81725 28552 ft 402 kts 337°
2026-04-24 19:31 54.79254 -2.83573 27995 ft 398 kts 337°
2026-04-24 19:31 54.81796 -2.85397 27464 ft 394 kts 337°
2026-04-24 19:32 54.84313 -2.87206 26938 ft 390 kts 337°
2026-04-24 19:32 54.86804 -2.89002 26424 ft 386 kts 337°
2026-04-24 19:32 54.89278 -2.90791 25901 ft 387 kts 337°
2026-04-24 19:32 54.91777 -2.92600 25353 ft 390 kts 337°
2026-04-24 19:33 54.94283 -2.94411 24813 ft 388 kts 338°
2026-04-24 19:33 54.96764 -2.96208 24273 ft 386 kts 338°
2026-04-24 19:33 54.99237 -2.98001 23711 ft 384 kts 338°
2026-04-24 19:33 55.01696 -2.99783 23133 ft 381 kts 337°
2026-04-24 19:34 55.04134 -3.01552 22602 ft 377 kts 337°
2026-04-24 19:34 55.06546 -3.03304 22079 ft 374 kts 337°
2026-04-24 19:34 55.08934 -3.05042 21553 ft 371 kts 337°
2026-04-24 19:34 55.11313 -3.06779 21036 ft 369 kts 337°
2026-04-24 19:35 55.13675 -3.08504 20520 ft 367 kts 337°
2026-04-24 19:35 55.16022 -3.10219 19923 ft 366 kts 337°
2026-04-24 19:35 55.18442 -3.11993 19001 ft 377 kts 336°
2026-04-24 19:35 55.20873 -3.13779 18312 ft 379 kts 336°
2026-04-24 19:36 55.23268 -3.15540 17699 ft 377 kts 336°
2026-04-24 19:36 55.25678 -3.17316 17094 ft 375 kts 336°
2026-04-24 19:36 55.28077 -3.19087 16505 ft 373 kts 336°
2026-04-24 19:36 55.30457 -3.20846 15971 ft 370 kts 336°
2026-04-24 19:37 55.32714 -3.22950 15449 ft 366 kts 327°
2026-04-24 19:37 55.34778 -3.25541 14933 ft 362 kts 322°
2026-04-24 19:37 55.36712 -3.28351 14432 ft 359 kts 319°
2026-04-24 19:37 55.38595 -3.31211 13920 ft 356 kts 319°
2026-04-24 19:38 55.40471 -3.34031 13358 ft 353 kts 321°
2026-04-24 19:38 55.42353 -3.36762 12803 ft 349 kts 322°
2026-04-24 19:38 55.44241 -3.39411 12268 ft 345 kts 322°
2026-04-24 19:38 55.46126 -3.41997 11731 ft 341 kts 323°
2026-04-24 19:39 55.47994 -3.44528 11215 ft 337 kts 322°
2026-04-24 19:39 55.49844 -3.47030 10696 ft 333 kts 322°
2026-04-24 19:39 55.51675 -3.49509 10194 ft 329 kts 322°
2026-04-24 19:39 55.53483 -3.51970 9643 ft 326 kts 322°
2026-04-24 19:40 55.55265 -3.54410 9100 ft 324 kts 322°
2026-04-24 19:40 55.57039 -3.56842 8560 ft 321 kts 322°
2026-04-24 19:40 55.58794 -3.59247 8031 ft 318 kts 322°
2026-04-24 19:40 55.60532 -3.61639 7510 ft 316 kts 322°
2026-04-24 19:41 55.62259 -3.64023 6996 ft 313 kts 322°
2026-04-24 19:41 55.63972 -3.66391 6475 ft 311 kts 322°
2026-04-24 19:41 55.65831 -3.68212 6080 ft 304 kts 343°
2026-04-24 19:41 55.67874 -3.68452 5987 ft 288 kts
2026-04-24 19:42 55.69788 -3.67896 5972 ft 271 kts
2026-04-24 19:42 55.71624 -3.67297 5649 ft 265 kts
2026-04-24 19:42 55.73409 -3.67256 5509 ft 251 kts 354°
2026-04-24 19:42 55.75105 -3.67538 5377 ft 239 kts 354°
2026-04-24 19:43 55.76737 -3.67810 5144 ft 233 kts 354°
2026-04-24 19:43 55.78366 -3.68085 4814 ft 232 kts 354°
2026-04-24 19:43 55.79945 -3.68356 4478 ft 230 kts 354°
2026-04-24 19:43 55.81557 -3.68629 4156 ft 229 kts 356°
2026-04-24 19:44 55.83130 -3.68300 3970 ft 230 kts 17°
2026-04-24 19:44 55.84546 -3.66984 3758 ft 231 kts 38°
2026-04-24 19:44 55.85586 -3.64850 3489 ft 229 kts 58°
2026-04-24 19:44 55.86410 -3.62437 3181 ft 224 kts 58°
2026-04-24 19:45 55.87203 -3.60114 2884 ft 216 kts 58°
2026-04-24 19:45 55.87970 -3.57873 2600 ft 208 kts 58°
2026-04-24 19:45 55.88699 -3.55741 2354 ft 196 kts 58°
2026-04-24 19:45 55.89399 -3.53696 2080 ft 191 kts 58°
2026-04-24 19:46 55.90069 -3.51735 1825 ft 187 kts 58°
2026-04-24 19:46 55.90740 -3.49768 1573 ft 182 kts 58°
2026-04-24 19:46 55.91374 -3.47909 1341 ft 168 kts 58°
2026-04-24 19:46 55.91959 -3.46190 1121 ft 155 kts 58°
2026-04-24 19:47 55.92490 -3.44632 928 ft 140 kts 58°
2026-04-24 19:47 55.92987 -3.43170 738 ft 133 kts 58°
2026-04-24 19:47 55.93461 -3.41779 567 ft 130 kts 58°
2026-04-24 19:47 55.93924 -3.40418 390 ft 127 kts 60°
2026-04-24 19:48 55.94384 -3.39074 200 ft 126 kts 60°
2026-04-24 19:48 55.94824 -3.37772 114 ft 113 kts 59°
2026-04-24 19:48 55.95253 -3.36433 111 ft 15 kts 111°
2026-04-24 19:49 55.95121 -3.36330 112 ft 13 kts 216°
2026-04-24 19:49 55.95024 -3.36605 112 ft 12 kts 239°
2026-04-24 19:50 55.94811 -3.36777 116 ft 13 kts 172°
2026-04-24 19:50 55.94752 -3.36705 114 ft 10 kts 97°
2026-04-24 19:51 55.94751 -3.36615 116 ft 0 kts 89°